Terminal Aerodrome Forecast
Issued by NWS North Platte, NE

Home | Current Version | Previous Version | Text Only | Print | Product List | Glossary On
Versions: 1 2 3 4 5 6 7 8 9 10 11 12 13 14 15 16 17 18 19 20
000
FTUS43 KLBF 291100
TAFVTN
TAF
KVTN 291120Z 2912/3012 31020G30KT P6SM BKN080
      TEMPO 2912/2914 31035G48KT 5SM SQ BKN080
     FM291400 32026G37KT P6SM BKN080
     FM292100 33017G25KT P6SM SKC
     FM300100 VRB06KT P6SM SKC=

USA.gov is the U.S. government's official web portal to all federal, state and local government web resources and services.